SCP
0 0 0 0 0 0 0 0 0 0 0 0 0 0 0 0 0 0 0 0 0 0 0 0 0 0 0 0 0 0 0 0 0 0 0 0 0 0 0 0 0 0 0
0 0 0 0 0 0 0 0 0 0 0 0 0 0 0 0 0 0 0 0 0 0 0 0 0 0 0 0 0 0 0 0 0 0 0 0 0 0 0 0 0 0 0
0 0 0 0 0 0 0 0 0 0 0 0 0 0 0 0 0 0 0 0 0 0 0 0 0 0 0 0 0 0 0 0 0 0 0 0 0 0 0 0 0 0 0
0 0 0 0 0 0 0 0 0 0 0 0 0 0 0 0 0 0 0 0 0 0 0 0 0 0 0 0 0 0 0 0 0 0 0 0 0 0 0 0 0 0 0
0 0 0 0 0 0 0 0 0 0 0 0 0 0 0 0 0 0 0 0 0 0 0 0 0 0 0 0 0 0 0 0 0 0 0 0 0 0 0 0 0 0 0
0 0 0 0 0 0 0 0 0 0 0 0 0 0 0 0 0 0 0 0 0 0 0 0 0 0 0 0 0 0 0 0 0 0 0 0 0 0 0 0 0 0 0
0 0 0 0 0 0 0 0 0 0 0 0 0 0 0 0 0 0 0 0 0 0 0 0 0 0 0 0 0 0 0 0 0 0 0 0 0 0 0 0 0 0 0
0 0 0 0 0 0 0 0 0 0 0 0 0 0 0 0 0 0 0 0 0 0 0 0 0 0 0 0 0 0 0 0 0 0 0 0 0 0 0 0 0 0 0
0 0 0 0 0 0 0 0 0 0 0 0 0 0 0 0 0 0 0 0 0 0 0 0 0 0 0 0 -0 0 0 0 0 0 0 0 0 0 0 0 0 0 0
0 0 0 0 0 0 0 0 0 0 0 0 0 0 0 0 0 0 0 0 0 0 0 -0 -0 -0 -0 -0 -0 -0 0 0 0 0 0 0 0 0 0 0 0 0 0
0 0 0 0 0 0 0 0 0 0 0 0 0 0 0 0 0 0 0 0 0 0 -0 -0 -0 0 0 0 0 -0 0 0 0 0 0 0 0 0 0 0 0 0 0
0 0 0 0 0 0 0 0 0 0 0 0 0 0 0 0 0 0 0 0 0 -0 0 0 0 0 0 0 0 0 0 0 0 0 0 0 0 0 0 0 0 0 0
0 0 0 0 0 0 0 0 0 0 0 0 0 0 0 0 0 0 0 0 0 0 0 0 0 0 0 0 0 0 0 0 0 0 0 0 0 0 0 0 0 0 0
0 0 0 0 0 0 0 0 0 0 0 0 0 0 0 0 0 0 0 0 0 0 0 0 0 0 0 0 0 0 0 0 0 0 0 0 0 0 0 0 0 0 0
0 0 0 0 0 0 0 0 0 0 0 0 0 0 0 0 0 0 0 0 0 0 0 0 0 0 0 0 0 0 0 0 0 0 0 0 0 0 0 0 0 0 0
0 0 0 0 0 0 0 0 0 0 0 0 0 0 0 0 0 0 0 0 0 0 0 0 0 0 0 0 0 0 0 0 0 0 0 0 0 0 0 0 0 0 0
0 0 0 0 0 0 0 0 0 0 0 0 0 0 0 0 0 0 0 0 0 0 0 0 0 0 0 0 0 0 0 0 0 0 0 0 0 0 0 0 0 0 0
0 0 0 0 0 0 0 0 0 0 0 0 0 0 0 0 0 0 0 0 0 0 0 0 0 0 0 0 0 0 0 0 0 0 0 0 0 0 0 0 0 0 0
0 0 0 0 0 0 0 0 0 0 0 0 0 0 0 0 0 0 0 0 0 0 0 0 0 0 0 0 0 0 0 0 0 0 0 0 0 0 0 0 0 0 0
0 0 0 0 0 0 0 0 0 0 0 0 0 0 0 0 0 0 0 0 0 0 0 0 0 0 0 0 0 0 0 0 0 0 0 0 0 0 0 0 0 0 0
0 0 0 0 0 0 0 0 0 0 0 0 0 0 0 0 0 0 0 0 0 0 0 0 0 0 0 0 0 0 0 0 0 0 0 0 0 0 0 0 0 0 0
0 0 0 0 0 0 0 0 0 0 0 0 0 0 0 0 0 0 0 0 0 0 0 0 0 0 0 0 0 0 0 0 0 0 0 0 0 0 0 0 0 0 0
0 0 0 0 0 0 0 0 0 0 0 0 0 0 0 0 0 0 0 0 0 0 0 0 0 0 0 0 0 0 0 0 0 0 0 0 0 0 0 0 0 0 0
0 0 0 0 0 0 0 0 0 0 0 0 0 0 0 0 0 0 0 0 0 0 0 0 0 0 0 0 0 0 0 0 0 0 0 0 0 0 0 0 0 0 0
0 0 0 0 0 0 0 0 0 0 0 0 0 0 0 0 0 0 0 0 0 0 0 0 0 0 0 0 0 0 0 0 0 0 0 0 0 0 0 0 0 0 0
0 0 0 0 0 0 0 0 0 0 0 0 0 0 0 0 0 0 0 0 0 0 0 0 0 0 0 0 0 0 0 0 0 0 0 0 0 0 0 0 0 0 0
Wind_Speed
8 12 13 13 12 11 12 11 10 8 8 7 6 7 9 9 8 8 7 7 8 9 9 10 10 11 10 8 7 7 7 6 5 6 5 6 6 6 6 1 3 5 2
12 14 13 12 11 11 12 11 10 8 7 6 6 6 6 6 6 6 6 7 8 8 8 9 11 10 11 9 5 4 4 3 4 5 5 6 9 8 4 0 4 5 6
13 14 11 11 11 11 12 12 10 7 6 4 4 4 2 2 4 6 6 6 7 6 6 8 9 8 9 10 8 5 5 5 4 5 8 7 8 11 8 3 4 7 7
12 14 12 12 11 12 12 11 9 7 6 3 2 3 3 1 1 4 5 6 6 4 4 6 7 7 7 7 7 6 5 5 4 6 6 6 4 6 6 4 5 6 6
9 12 14 14 12 13 13 11 8 7 6 3 1 2 3 3 2 4 4 6 5 3 3 4 5 5 6 6 6 7 7 5 3 6 7 5 2 2 5 5 7 8 8
8 13 14 14 13 13 12 11 9 7 6 3 1 0 2 5 4 4 5 7 6 4 1 2 3 4 5 5 6 7 7 5 3 5 5 5 3 5 6 6 8 9 9
9 14 13 13 13 12 12 11 9 8 6 4 2 1 2 7 5 5 8 7 6 4 1 3 4 5 6 7 7 7 7 5 5 5 5 5 5 8 9 10 10 11 12
8 12 12 13 11 11 11 11 10 9 7 4 2 0 2 5 7 4 7 7 5 3 3 5 6 7 8 8 9 9 8 7 7 6 6 6 10 12 12 13 13 14 14
7 10 12 9 8 9 9 8 9 7 6 5 3 1 3 2 3 5 6 6 5 3 5 7 8 9 10 10 10 10 8 9 6 5 9 6 11 14 15 15 15 16 16
5 6 11 11 10 8 8 9 8 7 6 5 5 4 4 4 6 6 7 7 5 5 7 9 10 11 11 12 13 12 12 9 7 8 7 8 15 17 17 16 17 18 19
4 4 6 9 9 9 10 11 9 8 7 7 6 7 5 5 7 7 5 6 4 6 9 11 12 13 12 11 14 16 12 5 7 7 6 10 14 16 17 18 19 20 21
8 6 5 5 7 6 5 9 6 7 7 7 6 8 6 5 1 3 3 5 7 8 10 13 14 13 10 7 10 13 5 8 8 7 6 12 15 18 19 19 20 21 22
11 9 6 5 6 5 4 4 3 3 5 6 5 5 3 2 2 2 2 4 6 7 6 7 8 6 7 6 5 4 6 6 4 4 6 12 16 20 21 21 22 22 23
8 9 7 6 4 4 5 3 2 3 3 2 3 2 1 1 0 0 1 1 2 2 2 3 3 5 5 5 5 5 6 4 4 4 6 13 15 19 22 23 23 24 25
6 7 7 7 6 4 3 3 1 2 4 4 3 2 3 2 2 3 2 2 3 3 3 3 4 5 6 6 6 6 6 7 7 6 5 11 14 17 21 23 24 24 25
5 6 5 6 6 7 4 3 2 1 3 3 4 3 3 1 2 2 3 3 4 3 3 3 4 5 4 4 6 7 6 7 7 7 6 8 13 15 17 21 23 23 24
6 4 3 1 3 8 7 5 3 3 4 4 4 4 3 4 4 4 4 4 4 4 4 4 5 5 5 5 6 6 5 6 8 8 8 7 8 12 15 17 19 21 22
4 4 4 2 2 6 6 5 3 5 5 5 5 6 8 7 6 5 5 4 5 5 5 5 5 5 5 6 6 6 6 6 8 8 8 8 7 7 9 12 15 18 20
5 5 4 5 5 7 8 6 7 8 8 8 7 6 7 8 8 6 5 5 6 5 5 6 5 5 6 7 7 7 7 7 8 9 8 8 9 9 7 10 13 14 17
6 6 6 7 8 8 8 9 8 9 7 6 6 6 7 7 8 7 5 6 6 5 5 6 6 7 5 6 9 8 8 8 7 6 9 9 9 12 11 11 9 10 14
6 7 7 8 7 7 7 7 6 6 5 5 5 7 7 7 7 7 5 5 5 5 6 6 5 6 5 5 5 6 7 6 6 10 11 10 11 11 10 11 8 8 8
7 8 8 9 9 9 8 6 6 6 5 5 4 6 7 7 7 7 6 5 5 5 6 6 4 4 4 5 5 5 5 6 6 9 7 8 9 8 12 13 12 11 10
7 8 8 9 10 10 10 8 7 5 5 4 4 4 6 7 7 6 6 5 5 5 4 5 5 6 5 5 5 4 4 5 10 4 7 8 8 8 8 9 11 11 11
7 7 8 8 8 8 7 7 8 6 5 4 3 3 5 6 6 6 5 5 5 4 5 5 5 4 5 4 4 3 4 7 7 8 5 5 9 9 9 9 9 11 11
7 7 7 8 8 8 8 8 8 6 5 3 4 4 5 5 6 5 5 4 4 4 5 5 5 5 4 4 3 4 5 5 7 10 12 7 6 6 6 7 8 9 11
7 7 7 8 8 8 9 8 8 8 6 6 5 4 3 4 4 5 4 4 4 3 4 4 4 6 5 5 4 4 5 5 7 9 13 13 9 6 6 6 7 8 9
Wind_Direction
125 130 149 148 153 150 146 140 131 123 106 93 92 91 93 99 80 67 52 62 56 39 18 15 30 42 46 61 86 86 77 69 40 23 5 332 303 294 310 328 310 306 212
121 132 147 150 154 149 144 135 127 123 109 98 99 103 96 90 80 76 70 67 53 38 19 8 15 29 33 32 46 64 56 44 24 352 325 299 272 254 249 129 306 322 333
122 132 147 149 151 146 143 134 133 133 122 114 101 95 88 98 93 92 93 78 62 41 12 2 2 10 21 19 20 24 16 4 359 325 303 276 260 230 211 202 274 294 319
126 138 148 146 148 145 142 139 144 142 131 120 98 53 26 350 176 136 128 107 90 62 19 6 2 1 4 2 360 357 351 341 342 311 293 281 315 171 204 233 261 263 272
126 137 139 147 150 145 144 147 151 148 137 130 105 27 0 345 272 201 166 134 117 94 39 10 358 355 348 339 332 326 323 333 321 288 274 280 312 270 261 246 267 268 266
127 121 138 145 148 150 151 152 151 151 151 151 155 308 334 348 315 195 162 148 143 139 80 353 325 318 318 317 312 306 306 311 289 269 294 300 268 264 265 259 260 264 267
130 124 139 143 150 156 157 158 161 159 158 156 156 215 13 16 7 165 162 161 168 173 205 300 310 303 297 291 286 284 282 280 263 267 269 279 262 255 259 258 256 254 258
117 126 136 148 153 157 159 168 176 171 167 163 155 230 38 41 36 98 159 173 191 206 252 283 302 302 301 291 284 283 280 274 277 278 264 255 261 255 252 256 255 257 255
127 134 144 154 161 167 170 180 185 180 174 163 160 98 95 100 71 98 143 178 205 238 273 276 286 291 292 289 289 290 277 260 256 266 270 255 250 254 254 252 253 254 255
141 153 153 164 172 174 181 188 176 172 168 166 170 161 171 221 227 203 187 190 208 257 282 283 282 283 283 284 283 277 266 256 246 251 253 250 250 254 256 257 256 256 257
180 181 168 167 168 178 181 174 169 165 173 185 192 205 212 231 225 209 176 167 222 267 274 274 275 275 275 276 271 264 261 245 245 249 247 245 251 257 259 261 261 261 262
185 201 191 180 161 174 155 153 180 176 176 199 208 190 210 222 128 109 158 215 243 257 265 267 266 268 268 259 259 258 241 236 239 245 243 242 251 258 261 261 261 260 261
175 177 184 188 169 164 137 166 175 169 164 200 201 164 180 150 139 193 209 214 232 239 246 259 251 248 241 241 247 251 238 243 245 251 254 252 252 260 262 262 263 263 262
153 158 172 177 174 168 150 166 174 163 157 167 143 151 153 113 70 270 315 297 268 247 255 280 278 282 277 278 271 265 264 263 257 253 252 257 254 259 266 268 268 267 267
142 147 168 171 170 164 143 134 202 173 143 149 111 93 68 37 13 24 340 344 337 346 340 338 327 322 324 319 320 318 311 301 294 286 278 272 266 258 266 274 275 273 272
122 141 160 173 171 148 138 146 199 143 101 88 101 92 74 49 47 20 3 18 11 356 345 338 334 329 321 325 317 307 310 314 305 301 293 286 278 265 260 273 279 277 276
71 68 76 74 161 146 154 167 150 107 90 76 76 68 64 63 50 46 40 26 359 349 356 7 353 337 328 323 312 306 304 299 290 289 291 288 283 274 261 266 275 279 278
108 105 119 161 183 144 134 132 112 95 85 73 65 59 48 44 54 58 46 22 9 17 16 5 357 351 344 334 327 321 319 310 298 297 296 292 294 288 274 265 264 267 270
126 117 131 148 140 112 100 85 78 72 66 65 58 54 47 36 38 48 44 30 12 19 18 4 357 354 342 336 332 329 323 314 306 308 319 336 338 333 328 318 303 286 274
120 122 111 96 94 97 91 81 74 72 66 63 58 53 49 45 41 33 35 32 18 17 14 9 3 356 343 344 335 328 314 306 309 349 351 343 336 333 333 333 331 330 327
93 100 107 110 111 104 102 102 96 89 79 69 64 62 55 47 46 44 28 26 20 19 25 10 7 348 345 335 334 325 307 326 345 360 337 331 330 331 340 335 330 335 332
94 85 81 81 83 88 94 94 98 100 97 91 77 65 62 51 40 42 33 28 18 22 22 4 11 352 341 346 350 337 331 314 8 329 310 328 318 336 333 329 330 327 323
86 89 93 93 95 99 103 106 106 96 90 81 81 78 69 62 45 36 35 30 19 27 16 0 14 1 346 340 356 351 333 310 317 281 325 306 327 328 318 317 317 318 320
90 89 90 93 98 106 114 112 110 108 108 111 110 103 97 80 63 35 37 38 31 30 20 358 6 349 346 328 332 340 304 307 313 307 293 307 314 310 308 313 322 319 318
89 86 86 83 79 83 87 96 103 107 110 103 94 82 95 89 74 41 35 38 38 29 12 357 348 335 326 315 316 311 305 306 303 304 302 300 292 289 302 316 314 313 315
96 91 94 91 81 77 80 81 90 100 100 91 81 69 73 82 70 45 29 25 30 20 357 342 337 325 313 307 307 299 293 299 304 302 303 306 302 294 300 299 301 302 306